{"data":{"norad_id":68167,"intl_designator":"2026-050A","name":"STARLINK-36969","alt_names":[],"object_type":"PAYLOAD","status":"ACTIVE","operator":null,"country":"US","launch_date":"2026-03-14","launch_site_code":"AFETR","launch_vehicle":null,"mission":null,"orbit_class":"UNKNOWN","rcs_meters":null,"size_class":null,"mass_kg":null,"dimensions":null,"purposes":["comms"],"wikipedia_slug":null,"has_3d_model":false,"image_url":null,"decayed_at":null,"tle_current":{"epoch":"2026-05-24T18:42:36.721152Z","epoch_age_seconds":90152,"freshness":"FRESH","line1":"1 68167U 26050A   26144.77959168  .00033849  00000+0  87477-3 0  9992","line2":"2 68167  53.1556 273.2760 0000721 120.6698 239.4378 15.38828593 12331","mean_motion":15.38828593,"eccentricity":7.21e-5,"inclination_deg":53.1556,"raan_deg":273.276,"arg_perigee_deg":120.6698,"mean_anomaly_deg":239.4378,"bstar":0.00087477,"rev_number":1233,"period_min":93.577673728604,"perigee_km":449.07982826521,"apogee_km":450.06438391831,"semimajor_km":6827.7091060918,"source":"CELESTRAK","updated_at":"2026-05-25T13:38:21.852165Z"}}}